Temperature
13 13 14 14 12 11 12 13 13 14 14 16 17 17 16 16 16 17 18 18 18 18 17 17 17 17 17 16 16 16 17 17 17 17 17 17 17 17 16 16 16 16 16 16 16 16 16 16 16
12 13 13 13 11 11 12 12 12 14 15 16 17 17 16 16 17 17 17 17 17 17 17 17 17 17 16 16 16 16 16 16 16 16 16 16 16 16 16 16 16 16 16 16 16 16 16 15 15
12 12 13 10 10 11 13 13 13 14 16 16 15 16 16 16 17 17 17 17 17 17 17 16 16 16 16 16 16 16 16 16 16 16 16 16 16 16 16 16 16 16 16 16 16 15 15 15 15
12 12 12 10 11 11 12 13 13 14 15 15 15 15 15 16 16 17 17 17 17 17 16 16 16 16 16 16 16 16 16 16 16 16 16 16 16 16 16 16 16 16 16 16 16 15 15 15 15
11 12 10 10 11 11 11 13 14 14 14 14 15 13 15 16 16 17 17 16 16 16 16 16 16 16 16 16 16 16 16 16 16 16 16 16 16 16 16 16 16 16 16 15 15 15 15 15 15
11 10 10 10 11 11 11 13 14 14 14 14 14 13 15 16 16 16 16 16 16 16 16 16 16 16 16 16 16 16 16 16 16 16 16 16 16 16 16 16 16 16 15 15 15 15 15 15 14
10 9 10 10 10 11 12 14 14 13 13 14 14 13 14 15 15 15 15 15 15 15 15 15 15 15 15 15 15 16 16 16 16 16 16 16 16 16 16 15 16 15 15 15 15 15 15 15 14
10 9 10 10 10 11 13 14 14 14 13 15 14 13 13 14 15 15 15 15 15 15 15 15 15 15 15 15 15 15 15 15 15 15 16 15 15 15 15 15 15 15 15 15 15 15 15 15 15
10 9 9 10 10 11 13 13 14 14 14 13 14 14 14 14 14 14 14 14 14 14 15 15 14 15 15 15 15 15 15 15 15 15 15 15 15 15 15 15 15 15 15 15 15 15 15 15 14
9 9 10 10 11 11 12 12 13 13 12 12 12 13 14 13 14 14 14 14 14 14 14 14 14 14 14 14 14 15 15 15 15 15 15 15 15 15 15 15 15 15 15 15 15 15 14 14 14
8 9 10 11 12 12 12 12 12 12 11 11 12 13 13 13 13 13 13 13 13 13 14 14 14 14 14 14 14 14 14 15 15 15 14 14 14 15 15 15 15 15 15 15 14 14 14 14 14
8 9 10 10 11 11 11 11 11 11 12 13 14 13 13 13 13 13 13 13 13 13 13 13 13 14 14 14 14 14 14 14 14 14 14 14 14 14 14 14 14 14 14 14 14 14 14 14 13
8 8 9 10 11 10 11 10 10 11 12 13 13 13 12 12 12 12 12 12 12 13 13 13 13 13 13 13 13 14 14 14 14 14 14 14 14 14 14 14 14 14 14 14 14 13 13 13 13
8 8 9 9 10 10 10 10 10 10 11 12 12 12 12 12 12 12 12 12 12 12 13 13 13 13 13 13 13 13 13 13 13 13 13 14 14 14 14 14 14 14 13 13 13 13 13 13 13
8 8 8 8 9 9 9 9 9 10 11 11 11 11 11 11 11 11 12 12 12 12 12 13 13 13 13 13 13 13 13 13 13 13 13 13 13 13 13 13 13 13 13 13 13 13 13 12 12
7 7 7 8 8 9 9 8 9 10 10 9 10 10 10 10 11 11 11 11 11 12 12 12 12 12 12 12 12 12 12 12 12 13 13 13 13 13 13 13 13 13 12 12 12 12 12 12 12
6 6 6 7 8 8 8 7 8 9 9 9 9 9 10 10 10 11 11 11 11 11 11 12 12 12 12 12 12 12 12 12 12 12 12 13 13 13 12 12 12 12 12 12 12 12 12 11 11
6 6 6 6 7 7 7 7 8 8 8 8 9 9 9 9 10 10 10 11 11 11 11 11 11 11 11 12 11 12 12 12 12 12 12 12 12 12 12 12 12 12 12 11 11 11 11 11 11
6 6 5 6 7 7 7 7 7 8 7 7 8 8 8 9 9 10 10 10 10 11 11 11 11 11 11 11 11 11 12 11 11 11 12 12 12 12 12 12 11 11 11 11 11 11 10 10 10
5 5 5 6 7 7 6 6 7 7 7 7 7 8 8 8 9 9 10 10 10 10 10 10 10 11 11 11 11 11 11 11 11 11 11 11 11 11 11 11 11 11 11 11 10 10 10 10 10
5 5 5 6 6 6 6 6 6 7 7 7 7 8 8 8 8 9 9 10 10 10 10 10 10 10 10 10 10 10 10 11 11 11 11 11 11 11 11 11 11 10 10 10 10 10 10 9 9
5 5 5 5 5 5 6 5 6 6 6 6 6 7 7 8 8 8 9 9 9 10 10 10 10 10 10 10 10 10 10 10 11 11 10 10 10 10 10 10 10 10 10 10 10 9 9 9 9
4 5 5 5 4 4 5 4 5 5 6 6 6 6 7 7 7 8 8 8 9 9 9 9 10 10 10 10 10 10 10 10 10 10 10 10 10 10 10 10 10 9 9 9 9 9 9 9 8
4 4 4 3 3 4 4 4 4 4 5 6 5 6 6 6 7 7 8 8 8 8 9 9 9 9 9 9 9 9 9 10 10 10 10 10 9 9 9 9 9 9 9 9 9 9 8 8 8
4 3 3 3 3 4 4 4 4 4 4 5 5 5 6 6 6 7 7 7 8 8 8 8 8 9 9 9 9 9 9 9 9 9 9 9 9 9 9 9 9 9 8 8 8 8 8 8 8
3 3 3 4 3 3 3 3 4 4 4 5 5 5 5 5 6 6 6 7 7 7 7 8 8 8 8 8 8 8 8 9 9 9 9 9 9 9 9 8 8 8 8 8 8 8 8 7 7
3 2 3 2 2 2 3 3 3 4 3 4 4 4 5 5 5 6 6 6 6 7 7 7 7 8 8 8 8 8 8 8 8 8 9 8 8 8 8 8 8 8 8 8 8 7 7 7 7
3 2 2 2 3 3 3 3 3 3 3 3 3 3 4 5 5 5 6 6 6 6 6 7 7 7 7 7 7 7 8 8 8 8 8 8 8 8 8 8 8 8 8 7 7 7 7 7 6
2 2 2 1 2 2 3 4 3 3 3 3 3 3 4 4 4 5 5 6 6 6 6 6 6 7 7 7 7 7 7 7 7 7 8 8 7 7 7 7 7 7 7 7 7 7 7 6 6
2 2 1 2 1 1 2 3 3 2 2 2 2 3 3 4 4 4 5 5 5 5 5 5 6 6 6 6 6 6 6 7 7 7 7 7 7 7 7 7 7 7 7 6 6 6 6 6 6
Wind_Speed
5 3 2 3 3 1 6 6 4 3 4 3 3 4 6 6 5 4 1 5 7 9 11 13 14 14 14 14 14 14 14 14 15 14 14 14 14 13 13 12 12 11 11 11 11 11 11 11 11
2 1 3 3 4 5 6 6 6 6 4 2 1 1 2 3 1 1 2 4 8 10 11 12 14 14 14 14 14 14 14 14 14 14 14 13 13 13 13 12 11 11 11 11 10 10 11 11 11
1 2 3 3 5 8 7 5 7 4 4 2 1 0 2 3 2 2 2 6 7 8 11 13 14 14 14 14 14 14 14 14 14 13 13 13 13 12 12 12 11 11 11 11 10 11 11 11 11
1 2 2 3 8 7 6 4 3 3 2 2 3 1 3 1 2 2 5 7 9 8 10 14 15 14 14 14 14 14 14 13 13 13 13 13 12 12 12 11 11 11 11 10 10 10 11 11 10
2 2 3 5 8 6 5 4 2 3 2 2 3 3 3 3 1 4 7 8 9 8 9 13 15 14 14 14 14 14 14 13 13 12 12 12 12 12 11 11 11 11 10 10 10 10 10 10 10
2 2 4 9 9 6 6 5 2 3 2 2 3 3 3 1 3 5 6 7 8 8 8 11 14 14 13 13 13 13 13 13 12 12 12 12 12 11 11 11 10 10 10 10 10 10 10 9 10
4 4 6 7 6 7 6 4 5 4 4 5 5 4 2 2 2 4 5 7 7 7 7 8 11 13 13 12 12 12 13 12 12 11 11 11 11 11 10 10 10 10 9 9 9 9 9 9 10
3 3 5 6 7 7 4 3 3 6 5 2 4 5 4 3 3 6 6 6 7 6 6 7 8 10 10 11 11 11 12 12 12 11 11 11 11 10 10 9 9 9 9 9 9 9 9 9 9
3 3 8 8 6 4 2 2 2 1 3 1 2 3 3 6 7 8 6 5 6 5 5 6 7 8 9 9 10 10 10 11 11 11 12 11 11 10 9 9 9 10 9 9 9 9 9 9 9
4 8 10 4 4 3 2 2 3 2 1 1 2 2 2 8 9 9 8 8 8 7 5 5 6 7 7 8 8 8 8 9 10 10 11 10 10 9 9 9 9 9 10 10 9 9 9 8 8
4 7 4 3 2 2 2 2 1 4 4 5 5 5 6 7 8 8 8 8 8 7 6 5 6 6 7 6 7 7 7 8 9 9 10 10 9 9 9 8 8 8 9 9 9 9 8 8 8
3 4 4 3 2 2 2 2 1 4 6 5 6 9 10 10 9 9 8 7 7 7 5 5 6 6 6 7 6 6 6 6 6 7 9 9 7 6 6 6 6 7 7 7 7 7 8 8 8
6 4 3 3 3 3 3 3 3 5 6 2 4 7 9 10 8 6 6 5 6 6 5 5 5 6 6 6 5 6 5 5 6 7 7 8 6 4 5 5 6 6 6 6 6 6 6 6 6
4 3 3 4 4 4 4 6 3 6 2 2 6 7 8 9 7 5 5 5 6 7 6 5 5 6 6 5 4 5 6 6 6 6 7 8 8 6 5 5 5 5 5 6 6 5 5 4 4
2 2 4 4 4 3 2 7 7 5 2 4 5 6 6 6 5 6 7 6 6 6 5 5 5 5 6 5 5 5 6 7 6 6 7 7 8 7 6 5 4 4 6 6 6 6 5 4 4
1 2 5 5 4 2 2 9 5 2 4 4 4 5 4 4 3 3 4 4 5 5 5 5 5 5 5 5 5 5 6 6 6 6 6 7 7 8 6 5 4 5 6 6 4 3 3 3 3
1 5 7 5 4 3 5 7 4 2 4 5 5 4 4 3 2 1 3 3 4 5 5 5 5 6 6 5 5 5 6 5 5 6 6 6 7 7 6 5 5 6 6 4 3 3 3 3 2
5 5 6 6 3 4 6 7 5 3 4 5 4 4 4 4 4 2 3 3 4 4 4 4 5 5 6 5 4 4 4 3 4 4 5 6 6 7 6 5 5 6 4 3 3 3 3 3 2
3 4 5 5 4 3 7 7 6 4 4 4 4 4 5 5 3 1 2 4 4 4 4 4 5 5 5 4 4 3 3 3 2 3 4 6 6 7 6 4 5 5 4 4 4 4 4 3 2
4 4 4 3 2 3 5 7 6 4 4 5 5 5 5 3 1 1 1 3 4 4 4 4 5 5 5 4 3 2 2 2 2 2 3 5 6 6 6 6 4 4 4 5 4 4 3 2 2
5 6 5 4 3 2 1 5 5 3 2 2 2 3 4 4 4 2 1 2 4 4 5 5 5 5 5 4 4 3 3 2 2 2 2 3 5 6 6 7 6 4 4 5 5 5 5 3 1
6 5 5 4 2 3 2 3 5 4 3 4 4 3 4 3 2 3 2 2 4 4 4 4 4 5 5 5 6 6 4 3 3 3 2 2 4 5 6 7 7 5 3 4 4 4 3 4 3
4 2 3 4 3 3 1 3 5 2 4 6 5 4 3 2 2 3 3 3 3 3 3 4 4 4 4 5 6 6 4 2 2 2 3 2 2 4 5 6 6 5 4 4 4 4 4 3 3
1 1 1 1 1 4 5 4 5 4 7 6 5 3 3 2 1 1 1 0 1 1 2 3 4 3 4 4 5 5 5 5 5 4 4 3 2 2 4 5 5 5 5 4 4 4 4 3 3
2 2 1 1 2 5 2 4 7 5 4 5 5 4 3 2 1 1 1 0 1 1 1 2 3 3 3 4 4 4 5 6 7 5 5 4 3 2 4 4 4 4 5 5 5 4 4 4 4
2 3 3 3 3 2 1 5 5 4 3 2 2 2 1 0 1 1 1 1 2 1 2 2 3 2 3 3 3 3 4 4 3 4 4 4 4 3 4 5 5 5 5 5 5 3 3 3 4
2 2 2 1 0 1 4 5 6 2 2 2 0 1 2 2 1 1 1 1 1 2 2 3 3 2 2 3 3 3 4 3 4 4 3 3 3 3 4 5 5 5 5 5 5 3 3 4 3
2 3 3 2 2 2 3 4 4 3 2 2 1 2 2 1 1 1 1 1 1 1 1 1 2 2 1 2 3 3 3 3 3 3 4 4 3 3 5 5 5 5 4 5 4 3 3 4 3
1 1 1 1 2 2 2 4 3 3 3 3 3 3 2 2 2 2 1 1 0 1 1 1 1 1 0 1 2 2 2 3 3 3 3 3 3 4 5 5 5 5 5 4 4 4 4 4 3
1 2 3 2 2 2 2 4 4 2 2 2 3 2 2 2 1 1 0 1 1 1 1 1 1 0 1 1 1 2 2 3 3 3 3 3 3 3 4 5 5 5 5 5 5 5 5 5 4
Wind_Direction
318 10 66 63 75 97 227 230 209 212 217 217 188 175 176 177 174 204 343 140 134 143 153 152 149 147 146 144 141 137 133 131 131 129 127 125 123 121 118 115 112 108 103 100 97 96 94 93 90
332 49 62 79 143 203 242 224 213 216 204 157 117 138 147 229 235 145 123 155 140 142 146 148 146 146 145 144 142 138 135 134 132 130 128 126 126 124 121 117 113 109 105 102 98 96 97 97 94
331 67 109 121 182 202 219 218 210 232 222 186 153 226 186 214 187 185 183 151 137 139 143 145 143 146 145 145 143 139 137 134 133 132 130 127 125 125 124 120 116 112 108 104 100 97 97 98 95
82 72 80 174 220 222 215 225 198 224 251 181 159 236 278 277 226 197 143 140 139 142 142 145 144 145 146 144 143 140 137 135 134 132 130 128 125 123 122 120 117 114 110 107 103 99 96 96 97
72 120 177 223 229 237 240 247 208 197 210 196 159 192 267 310 45 128 137 141 145 145 141 145 147 147 146 145 142 139 138 136 134 133 132 130 127 124 121 119 118 117 113 110 106 101 97 97 97
124 134 194 222 227 239 243 235 204 205 209 197 167 178 245 303 109 133 141 142 142 142 139 145 148 146 143 141 141 140 140 138 135 132 131 130 128 126 123 121 119 118 115 111 107 103 97 97 97
165 175 210 213 222 236 233 204 198 200 216 218 179 163 239 266 146 132 133 132 130 133 134 135 140 140 139 137 137 143 141 138 135 132 130 128 127 127 124 121 119 116 114 110 106 104 99 98 97
160 160 214 213 213 233 222 190 203 194 223 195 160 170 211 218 150 128 121 126 127 126 129 132 131 134 134 134 135 137 139 137 133 129 123 120 119 119 118 116 117 115 113 109 103 101 99 97 97
140 196 221 211 203 233 213 193 235 179 147 176 224 219 225 153 140 136 132 134 138 137 133 134 134 129 128 129 131 129 128 130 126 122 117 111 106 106 105 108 111 112 111 108 103 96 94 94 92
176 213 222 199 197 223 246 218 212 127 146 254 296 328 113 142 149 154 160 164 165 162 156 145 143 135 129 129 126 123 122 120 120 121 118 113 108 104 104 101 102 103 105 104 100 95 87 84 80
198 218 225 235 241 253 248 259 210 165 220 222 205 186 160 157 163 167 173 175 176 169 162 153 149 141 135 130 125 119 119 118 118 122 122 116 107 103 100 94 92 92 93 90 90 84 79 78 79
225 246 230 253 274 289 278 268 236 212 233 230 203 175 170 173 182 183 180 182 170 164 167 161 149 142 137 132 131 128 125 124 123 127 130 123 111 103 100 95 92 89 89 88 84 81 81 77 77
231 249 252 262 265 283 302 276 262 259 273 263 163 164 175 181 187 186 180 177 169 167 168 162 152 146 143 137 141 139 135 135 134 132 135 134 125 123 111 104 98 94 94 95 93 89 86 77 71
230 237 264 272 266 265 272 278 261 264 258 169 173 179 185 185 182 175 178 181 177 171 172 163 152 151 145 148 149 146 139 138 134 133 138 139 133 130 123 113 105 100 101 103 101 101 98 86 78
224 231 275 263 251 255 289 280 245 247 183 182 190 188 189 188 181 189 192 188 178 172 167 162 158 149 149 148 148 143 140 139 136 138 139 139 138 136 130 125 118 112 108 102 93 90 85 82 75
211 213 244 255 232 235 180 257 258 223 170 194 207 201 197 200 199 202 191 184 161 162 160 164 162 152 153 149 144 143 141 138 138 140 138 140 141 140 132 130 129 121 111 103 103 99 90 76 73
208 222 233 257 226 203 201 251 260 217 179 205 215 207 201 217 236 227 194 175 156 159 155 159 151 154 151 141 135 136 134 135 139 139 139 143 144 144 137 136 134 127 113 106 112 93 99 97 78
223 223 227 232 241 207 221 245 273 233 198 209 211 205 203 221 236 223 176 160 147 147 149 150 145 144 136 126 118 118 115 121 128 138 146 148 148 147 138 134 136 131 121 116 114 107 87 98 96
229 230 248 251 250 218 230 244 260 255 213 213 213 210 216 239 259 173 143 145 132 136 146 151 150 153 144 141 148 149 158 158 153 149 150 153 153 150 142 136 142 141 141 141 134 120 102 79 77
232 242 251 279 251 229 239 251 248 241 225 217 212 217 217 245 271 168 89 145 151 157 160 160 164 161 159 160 161 154 143 141 145 144 146 159 156 156 152 145 151 152 144 138 140 130 122 91 60
244 223 232 265 304 274 244 272 250 251 239 255 237 223 219 222 215 200 187 176 159 168 175 177 178 169 161 149 126 106 92 88 118 152 168 167 161 162 158 153 147 149 155 159 158 152 140 141 67
249 230 239 250 257 259 187 254 264 242 247 252 257 240 238 237 206 196 205 202 184 186 179 177 175 167 162 153 155 157 166 179 193 179 173 155 158 160 159 153 150 149 152 161 164 155 148 145 150
234 250 247 239 218 262 224 204 281 241 238 245 246 235 242 237 205 200 209 216 193 178 167 174 164 162 165 169 171 170 170 171 152 149 154 153 146 156 158 156 152 151 152 157 156 150 150 148 156
217 28 22 31 168 246 223 188 269 233 229 240 239 238 243 235 219 209 201 171 134 121 136 153 155 163 169 173 175 175 172 164 159 164 169 168 160 157 159 155 153 152 150 157 161 153 153 151 147
87 98 8 286 231 245 205 196 248 258 242 225 225 227 234 227 194 157 83 113 124 123 152 162 164 171 175 175 180 184 181 175 180 181 180 178 178 188 182 162 159 158 155 152 153 150 155 153 154
203 162 175 209 224 270 207 227 251 270 268 254 226 205 179 220 180 168 216 201 176 181 193 182 182 190 182 183 189 182 175 177 184 183 179 187 192 193 172 164 161 156 153 149 147 150 153 151 158
164 189 174 135 303 269 255 282 307 336 356 2 84 141 196 216 210 200 212 204 179 193 205 204 190 194 196 192 186 180 178 181 183 173 168 174 168 167 162 163 158 155 154 151 148 153 156 155 163
151 150 120 159 197 239 271 270 270 281 275 295 266 231 245 237 237 262 232 216 196 204 204 186 183 189 202 190 190 192 192 187 176 164 169 174 170 161 162 167 163 158 156 154 149 150 160 159 166
92 126 131 159 176 177 253 271 265 246 255 255 263 258 246 239 232 238 252 234 184 110 141 171 169 111 106 195 193 180 184 173 160 166 176 177 169 163 170 172 168 165 167 164 158 164 167 168 171
162 174 153 178 244 206 215 274 334 308 304 297 293 290 278 261 257 244 215 80 69 88 113 159 172 162 208 198 189 183 169 158 158 167 171 168 170 173 174 169 170 170 170 169 170 174 176 178 179
Height
1490 1492 1494 1497 1500 1508 1507 1501 1497 1495 1494 1492 1492 1493 1494 1496 1499 1502 1495 1494 1496 1499 1502 1505 1507 1510 1512 1514 1516 1518 1520 1522 1523 1525 1526 1528 1529 1530 1532 1533 1533 1534 1535 1536 1536 1536 1537 1537 1538
1489 1491 1495 1495 1502 1510 1504 1496 1494 1491 1490 1490 1491 1491 1492 1492 1492 1492 1492 1493 1496 1499 1501 1504 1507 1509 1512 1514 1516 1518 1520 1522 1524 1525 1526 1528 1529 1530 1532 1533 1534 1534 1535 1536 1536 1537 1537 1538 1538
1489 1491 1493 1495 1500 1501 1497 1490 1489 1488 1489 1489 1490 1490 1491 1491 1491 1491 1492 1494 1497 1499 1501 1504 1507 1509 1511 1514 1516 1518 1520 1522 1523 1525 1526 1528 1529 1530 1531 1533 1534 1534 1535 1536 1536 1537 1537 1538 1538
1488 1491 1492 1496 1495 1492 1489 1486 1486 1487 1487 1488 1489 1490 1490 1491 1491 1491 1492 1494 1496 1499 1501 1504 1506 1509 1511 1513 1515 1517 1519 1521 1523 1525 1526 1528 1529 1530 1531 1532 1533 1534 1535 1536 1536 1537 1538 1538 1539
1487 1489 1492 1493 1491 1488 1486 1485 1485 1486 1486 1487 1488 1488 1488 1489 1490 1491 1492 1494 1496 1498 1501 1503 1506 1508 1511 1513 1515 1517 1519 1521 1523 1524 1526 1527 1528 1530 1531 1532 1533 1534 1535 1536 1536 1537 1537 1538 1538
1486 1487 1492 1491 1488 1485 1483 1483 1484 1484 1485 1485 1486 1487 1487 1488 1489 1490 1492 1494 1496 1498 1500 1503 1505 1508 1510 1512 1514 1516 1518 1520 1522 1523 1525 1526 1528 1529 1530 1532 1533 1534 1535 1535 1536 1537 1537 1538 1538
1484 1486 1487 1487 1486 1484 1480 1480 1482 1482 1483 1484 1484 1486 1486 1487 1489 1490 1492 1494 1496 1498 1500 1502 1504 1507 1509 1511 1513 1515 1517 1519 1521 1523 1524 1526 1527 1529 1530 1531 1532 1533 1534 1535 1535 1536 1537 1537 1538
1481 1484 1485 1485 1484 1480 1477 1478 1478 1480 1481 1482 1483 1484 1484 1485 1487 1489 1491 1493 1495 1497 1499 1501 1503 1506 1508 1510 1512 1514 1517 1518 1520 1522 1523 1525 1526 1528 1529 1530 1531 1532 1533 1534 1535 1536 1536 1536 1537
1479 1484 1481 1480 1480 1478 1476 1477 1477 1478 1479 1480 1481 1482 1482 1484 1485 1487 1489 1492 1494 1496 1498 1500 1502 1504 1507 1509 1511 1513 1515 1517 1519 1521 1522 1524 1525 1527 1528 1529 1530 1531 1532 1533 1534 1535 1535 1536 1536
1477 1479 1474 1475 1476 1476 1475 1476 1476 1477 1478 1479 1479 1480 1481 1482 1483 1485 1486 1488 1491 1493 1496 1498 1500 1503 1505 1508 1510 1512 1514 1516 1518 1519 1521 1522 1524 1525 1526 1527 1529 1530 1531 1532 1533 1534 1534 1535 1535
1474 1473 1472 1473 1474 1474 1474 1475 1475 1475 1477 1477 1477 1477 1479 1480 1481 1483 1485 1486 1489 1491 1494 1497 1499 1501 1504 1506 1508 1510 1512 1514 1516 1518 1520 1521 1522 1524 1525 1526 1527 1529 1530 1531 1532 1533 1533 1534 1534
1472 1471 1471 1472 1473 1473 1474 1473 1474 1474 1474 1474 1475 1475 1476 1478 1479 1480 1483 1485 1487 1490 1492 1494 1497 1499 1502 1504 1507 1509 1511 1513 1514 1516 1518 1519 1521 1522 1524 1525 1526 1527 1528 1529 1530 1531 1532 1532 1533
1471 1470 1471 1472 1472 1473 1473 1473 1473 1472 1472 1472 1473 1474 1474 1475 1477 1480 1482 1484 1485 1487 1490 1492 1495 1497 1500 1502 1505 1507 1510 1511 1513 1514 1516 1518 1519 1521 1522 1524 1525 1526 1527 1528 1529 1530 1530 1531 1532
1469 1470 1471 1471 1471 1472 1472 1472 1472 1469 1470 1470 1471 1471 1472 1474 1475 1477 1479 1480 1483 1485 1488 1490 1492 1495 1498 1500 1503 1505 1508 1509 1511 1513 1514 1516 1518 1519 1521 1522 1523 1524 1525 1526 1528 1528 1529 1529 1530
1469 1470 1470 1470 1470 1470 1472 1471 1469 1468 1469 1469 1470 1470 1471 1472 1474 1475 1476 1478 1480 1483 1485 1488 1490 1493 1495 1498 1500 1503 1505 1508 1509 1511 1513 1514 1516 1518 1519 1520 1522 1523 1524 1525 1526 1527 1527 1528 1529
1469 1471 1472 1469 1469 1469 1474 1472 1466 1466 1467 1468 1469 1469 1470 1471 1473 1474 1475 1477 1479 1481 1483 1486 1488 1491 1493 1496 1498 1501 1503 1505 1507 1509 1511 1513 1514 1516 1517 1519 1520 1521 1522 1524 1525 1525 1525 1526 1527
1471 1472 1472 1470 1467 1468 1471 1469 1465 1464 1465 1466 1467 1468 1469 1469 1471 1472 1474 1475 1477 1479 1481 1484 1486 1488 1491 1494 1496 1499 1501 1503 1505 1507 1509 1511 1513 1514 1516 1517 1518 1519 1521 1522 1523 1523 1524 1524 1525
1471 1471 1471 1471 1467 1467 1468 1467 1464 1463 1464 1465 1465 1467 1468 1468 1469 1470 1472 1474 1475 1477 1480 1482 1484 1486 1489 1491 1494 1496 1498 1501 1503 1505 1507 1509 1511 1512 1514 1515 1516 1518 1519 1520 1521 1521 1522 1523 1523
1470 1471 1471 1469 1466 1467 1466 1465 1464 1462 1463 1463 1463 1465 1466 1467 1467 1468 1470 1472 1474 1476 1478 1480 1482 1484 1486 1488 1491 1493 1496 1498 1500 1503 1505 1507 1509 1510 1512 1513 1514 1516 1517 1518 1519 1520 1520 1521 1521
1469 1471 1471 1468 1465 1466 1466 1464 1462 1461 1461 1461 1461 1462 1463 1464 1465 1466 1467 1470 1471 1474 1476 1478 1480 1482 1484 1487 1489 1491 1494 1496 1498 1500 1503 1505 1506 1508 1509 1511 1512 1513 1515 1516 1517 1517 1518 1519 1520
1468 1470 1470 1469 1467 1465 1466 1464 1461 1459 1459 1460 1460 1461 1461 1462 1463 1464 1466 1467 1469 1471 1473 1475 1478 1480 1482 1484 1487 1489 1491 1493 1496 1498 1500 1502 1504 1506 1507 1509 1510 1511 1512 1513 1514 1515 1516 1517 1518
1468 1466 1467 1468 1471 1471 1468 1471 1462 1459 1459 1458 1458 1458 1459 1460 1461 1462 1463 1465 1467 1469 1471 1473 1476 1477 1480 1482 1484 1486 1488 1490 1493 1495 1497 1499 1501 1503 1505 1506 1507 1508 1510 1511 1512 1513 1514 1515 1516
1467 1465 1467 1468 1471 1473 1470 1473 1465 1460 1459 1457 1456 1457 1457 1458 1459 1460 1462 1463 1465 1467 1469 1471 1473 1475 1477 1479 1481 1483 1486 1488 1491 1493 1495 1496 1498 1500 1502 1504 1505 1506 1508 1509 1510 1511 1512 1513 1514
1466 1467 1468 1471 1472 1474 1469 1473 1468 1462 1456 1454 1455 1455 1456 1456 1458 1459 1461 1462 1463 1465 1466 1469 1470 1472 1474 1476 1478 1480 1483 1485 1488 1490 1491 1493 1495 1498 1500 1501 1503 1504 1505 1507 1508 1509 1510 1511 1512
1468 1472 1475 1474 1477 1473 1467 1469 1464 1456 1454 1453 1453 1454 1454 1455 1456 1456 1458 1459 1460 1462 1464 1466 1468 1470 1471 1473 1475 1477 1480 1482 1485 1487 1488 1491 1493 1494 1496 1498 1500 1502 1503 1504 1506 1507 1508 1508 1509
1470 1473 1476 1476 1475 1472 1469 1467 1459 1453 1451 1451 1451 1452 1453 1454 1455 1455 1457 1458 1459 1460 1462 1464 1465 1467 1469 1470 1473 1475 1477 1480 1482 1484 1486 1488 1490 1492 1493 1496 1498 1499 1500 1501 1503 1504 1505 1506 1507
1471 1474 1474 1478 1480 1478 1471 1465 1456 1451 1451 1450 1450 1451 1451 1452 1454 1454 1456 1457 1458 1459 1460 1462 1463 1465 1466 1468 1470 1472 1475 1477 1479 1482 1484 1486 1487 1489 1491 1493 1495 1496 1498 1499 1500 1501 1502 1503 1504
1470 1472 1477 1478 1475 1473 1469 1465 1461 1454 1451 1451 1450 1450 1450 1451 1452 1453 1454 1455 1456 1458 1459 1461 1462 1463 1464 1466 1468 1470 1472 1474 1477 1479 1481 1483 1484 1486 1488 1490 1492 1493 1495 1496 1497 1498 1499 1500 1501
1473 1474 1475 1477 1477 1477 1474 1465 1455 1454 1451 1451 1450 1449 1450 1450 1451 1452 1453 1454 1455 1456 1457 1459 1460 1461 1462 1464 1466 1468 1470 1471 1473 1475 1478 1480 1482 1484 1485 1487 1489 1490 1492 1493 1494 1496 1497 1498 1499
1472 1473 1475 1477 1479 1479 1476 1468 1455 1453 1451 1450 1450 1449 1449 1450 1450 1451 1452 1453 1454 1454 1455 1456 1457 1459 1460 1462 1463 1465 1467 1469 1470 1473 1475 1477 1479 1481 1483 1484 1485 1487 1489 1490 1491 1493 1494 1495 1496